Hermiston, OR

4:20 AM PDT on July 26, 2016 (GMT -0700)
Hermiston Municipal

Weather History for KHRI - May, 2013

Change the Weather History Date:

Sunday, May 19, 2013

  Actual Average Record
Temperature  
Mean Temperature 60 °F 61 °F  
Max Temperature 75 °F 75 °F 96 °F (1954)
Min Temperature 48 °F 46 °F 32 °F (2003)
Degree Days  
Heating Degree Days 4    
Growing Degree Days 10 (Base 50)    
Moisture  
Dew Point 41 °F    
Average Humidity 50    
Maximum Humidity 77    
Minimum Humidity 25    
Precipitation  
Precipitation 0.00 in 0.03 in 0.66 in (1907)
Month to date precipitation 0.55  
Year to date precipitation 4.97  
Sea Level Pressure  
Sea Level Pressure 30.23 in    
Wind  
Wind Speed 9 mph (SW)    
Max Wind Speed 16 mph    
Max Gust Speed -    
Visibility 10 miles    
Events      
T = Trace of Precipitation, MM = Missing Value Source: NWS Daily Summary

Daily Weather History Graph

Daily Weather History Graph

Search for Another Location

Airport or City:

Trip Planner

Search our weather history database for the weather conditions in past years. The results will help you decide how hot, cold, wet, or windy it might be!

Date:

Astronomy

May. 19, 2013 Rise Set
Actual Time 5:20 AM PDT 8:27 PM PDT
Civil Twilight 4:45 AM PDT 9:02 PM PDT
Nautical Twilight 3:59 AM PDT 9:48 PM PDT
Astronomical Twilight 3:03 AM PDT 10:45 PM PDT
Moon 2:18 PM PDT (5/19) 2:05 AM PDT (5/19)
Length of Visible Light 16h 17m
Length of Day
15h 06m
Waxing Gibbous, 66% of the Moon is Illuminated
May 19
Waxing Gibbous
May 24
Full
May 31
Last Quarter
Jun 8
New
Jun 16
First Quarter

Hourly Weather History & Observations

Time (PDT) Temp. Dew Point Humidity Pressure Visibility Wind Dir Wind Speed Gust Speed Precip Events Conditions
12:53 AM 54.0 °F 44.1 °F 69% 30.18 in 10.0 mi SW 16.1 mph - N/A   Overcast
1:53 AM 54.0 °F 43.0 °F 66% 30.19 in 10.0 mi SW 10.4 mph - N/A   Overcast
2:53 AM 53.1 °F 43.0 °F 69% 30.21 in 10.0 mi SW 12.7 mph - N/A   Overcast
3:53 AM 50.0 °F 41.0 °F 71% 30.22 in 10.0 mi SW 11.5 mph - N/A   Clear
5:53 AM 48.9 °F 42.1 °F 77% 30.26 in 10.0 mi SSW 3.5 mph - N/A   Mostly Cloudy
6:53 AM 51.1 °F 43.0 °F 74% 30.26 in 10.0 mi SSW 5.8 mph - N/A   Clear
7:53 AM 57.9 °F 43.0 °F 58% 30.27 in 10.0 mi SW 12.7 mph - N/A   Clear
8:53 AM 61.0 °F 43.0 °F 52% 30.27 in 10.0 mi Variable 5.8 mph - N/A   Clear
9:53 AM 64.0 °F 42.1 °F 45% 30.27 in 10.0 mi WSW 5.8 mph - N/A   Scattered Clouds
10:53 AM 66.9 °F 41.0 °F 39% 30.26 in 10.0 mi Variable 6.9 mph - N/A   Mostly Cloudy
1:53 PM 71.1 °F 39.0 °F 31% 30.23 in 10.0 mi Variable 4.6 mph - N/A   Mostly Cloudy
2:53 PM 71.1 °F 39.0 °F 31% 30.22 in 10.0 mi Variable 5.8 mph - N/A   Clear
3:53 PM 73.9 °F 39.0 °F 28% 30.22 in 10.0 mi Variable 5.8 mph - N/A   Clear
4:53 PM 73.0 °F 37.9 °F 28% 30.20 in 10.0 mi Calm Calm - N/A   Clear
5:53 PM 73.9 °F 36.0 °F 25% 30.19 in 10.0 mi SSE 3.5 mph - N/A   Clear
6:53 PM 73.0 °F 37.0 °F 27% 30.19 in 10.0 mi Calm Calm - N/A   Clear
7:53 PM 69.1 °F 37.9 °F 32% 30.20 in 10.0 mi SSW 3.5 mph - N/A   Clear
8:53 PM 64.0 °F 44.1 °F 48% 30.20 in 10.0 mi WSW 6.9 mph - N/A   Clear
9:53 PM 57.0 °F 42.1 °F 57% 30.22 in 10.0 mi SSW 6.9 mph - N/A   Clear
10:53 PM 57.0 °F 42.1 °F 57% 30.23 in 10.0 mi SSW 8.1 mph - N/A   Clear
11:53 PM 55.0 °F 42.1 °F 62% 30.24 in 10.0 mi SSW 9.2 mph - N/A   Clear